AirNav   Pilot Hours Calculator
 
 921 users online  

72FL Gator Airpark
St Cloud, Florida, USA

GOING TO ST CLOUD?


FAA INFORMATION EFFECTIVE 02 JANUARY 2020

Location

FAA Identifier: 72FL
Lat/Long: 28-09-27.0560N 081-14-05.2680W
28-09.450933N 081-14.087800W
28.1575156,-81.2347967
(estimated)
Elevation: 68 ft. / 21 m (estimated)
Variation: 02W (1990)
From city: 6 miles SE of ST CLOUD, FL
Time zone: UTC -5 (UTC -4 during Daylight Saving Time)
Zip code: 33837

Airport Operations

Airport use: Private use. Permission required prior to landing
Activation date: 02/1993
Control tower: no
ARTCC: JACKSONVILLE CENTER
FSS: SAINT PETERSBURG FLIGHT SERVICE STATION
Attendance: UNATNDD
Segmented circle: no

Airport Communications

WX AWOS-3PT at ISM (13 nm NW): 128.775 (407-847-0533)
WX ASOS at MCO (17 nm N): PHONE 407-855-5235

Nearby radio navigation aids

VOR radial/distance  VOR name  Freq  Var
ORLr167/23.7ORLANDO VORTAC112.2000E
MLBr283/31.9MELBOURNE VOR/DME110.0007W

Airport Services

Runway Information

Runway 9/27

Dimensions: 1800 x 200 ft. / 549 x 61 m
Surface: turf
RUNWAY 9  RUNWAY 27
Traffic pattern: leftleft

Airport Ownership and Management from official FAA records

Ownership: Privately-owned
Owner: ALBRITTON AIRSTRIP TRUST
4525 ALBRITTON RD
SAINT CLOUD, FL 34772
Phone 407-892-4546
Manager: ROBERT L. ALBRITTON
4525 ALBRITTON RD
SAINT CLOUD, FL 34772
Phone 407-908-5656

Airport Operational Statistics

Aircraft based on the field: 6
Single engine airplanes: 6
    
Aircraft operations: avg 25/month
100% local general aviation

Additional Remarks

FOR CD CTC ORLANDO APCH AT 407-852-7553.

Instrument Procedures

There are no published instrument procedures at 72FL.

Some nearby airports with instrument procedures:

KISM - Kissimmee Gateway Airport (13 nm NW)
KMCO - Orlando International Airport (17 nm N)
KORL - Executive Airport (24 nm N)
X07 - Lake Wales Municipal Airport (26 nm SW)
KGIF - Winter Haven Regional Airport (28 nm W)
 
Loc | Ops | Rwys | IFR | FBO | Links
Com | Nav | Svcs | Stats | Notes

Reliance Aviation
AirBoss

 
Area around 72FL (Gator Airpark)
 
Road maps at: MapQuest Bing Google
 
Aerial photo
No photo
 
Sectional chart

 
Airport distance calculator
Flying to Gator Airpark? Find the distance to fly.

From to 72FL

Sunrise and sunset
Times for 22-Jan-2020
 Local
(UTC-5)
 Zulu
(UTC)
Morning civil twilight06:5311:53
Sunrise07:1812:18
Sunset17:5622:56
Evening civil twilight18:2123:21

Current date and time
Zulu (UTC)  23-Jan-2020 03:30:08
Local (UTC-5)  22-Jan-2020 22:30:08
 
METAR
KISM 
13nm NW 
230256Z 35009KT 10SM OVC009 11/10 A3015 RMK AO2 SLP211 6//// T01110100 51010 PNO $
KMCO 
16nm N 
230253Z 35013KT 10SM OVC007 12/09 A3014 RMK AO2 SLP204 T01170094 50007
KORL 
24nm N 
230253Z 35010KT 10SM OVC008 12/09 A3015 RMK AO2 SLP214 T01170094 50008
KX07 
26nm SW 
230235Z AUTO 01010G16KT 10SM OVC008 11/10 A3015 RMK A01
TAF
KISM 
13nm NW 
230158Z 2302/2324 36011KT P6SM OVC009 FM230300 36006KT P6SM BKN035 FM231500 05008KT P6SM BKN035 FM231700 08009KT P6SM BKN035
KMCO 
16nm N 
230113Z 2301/2406 35011KT P6SM OVC009 FM230300 36009KT P6SM BKN035 FM231500 05008KT P6SM BKN035 FM232000 08012KT P6SM BKN035 FM240000 VRB05KT P6SM SCT035 BKN060
NOTAMs
Click for the latest NOTAMs
NOTAMs are issued by the DoD/FAA and will open in a separate window not controlled by AirNav.

 

 
 

Would you like to see your business listed on this page?

 If your business provides an interesting product or service to pilots, flight crews, aircraft, or users of the Gator Airpark, you should consider listing it here.  To start the listing process, click on the button below
 
Add a business
 

Other Pages about Gator Airpark

Update a link
 
Copyright © AirNav, LLC. All rights reserved. Privacy Policy  Contact